Location: Newark
(25.6108°S, 54.5803°W)
Time: 08:08:22
(UTC+00:00)

Tiros 1 - Pass Details

Date: 29 October 2020
Orbit: 630 x 664 km, 48.4° (Epoch: 29 November)

Event Time Altitude Azimuth Distance (km) Brightness Sun altitude
Rises 18:13:04 0° 282° (WNW) 2,973 11.2 48.2°
Reaches altitude 10° 18:15:49 10° 268° (W) 2,073 10.7 47.6°
Maximum altitude 18:19:37 23° 215° (SW) 1,404 9.5 46.8°
Drops below altitude 10° 18:23:29 10° 162° (SSE) 2,097 9.7 45.9°
Sets 18:26:17 0° 147° (SSE) 3,016 10.3 45.3°
